Location: Newark
(54.4333°N, 18.5500°E)
Time: 10:38:14
(UTC+00:00)

Envisat - Pass Details

Date: 17 December 2019
Orbit: 764 x 766 km, 98.1° (Epoch: 26 January)

Event Time Altitude Azimuth Distance (km) Brightness Sun altitude
Rises 14:59:57 0° 123° (ESE) 3,230 6.0 -5.3°
Reaches altitude 10° 15:02:35 10° 110° (ESE) 2,308 5.1 -5.6°
Maximum altitude 15:06:40 25° 57° (ENE) 1,516 4.0 -6.1°
Drops below altitude 10° 15:10:46 10° 3° (N) 2,319 5.2 -6.7°
Sets 15:13:25 0° 351° (N) 3,249 6.0 -7.0°
